User: anonymous   Login
Location: Yellowknife
(62.4500°N, 114.3500°W)
Time: 15:09:25
(UTC-06:00)
Language:

Hubble Space Telescope - Orbit

View from above orbital plane
View from above orbital plane
View from above satellite
View from above satellite

Ground track
Ground track

The orbit data is extracted from the following two-line orbital elements,

1 20580U 90037B   24170.56678140  .00006050  00000-0  28191-3 0  9990
2 20580  28.4699 335.8889 0003073  54.4766 305.6113 15.17776603677242
Epoch (UTC): 18 June 2024 13:36:09
Eccentricity: 0.0003073
inclination: 28.4699°
perigee height: 510 km
apogee height: 514 km
right ascension of ascending node: 335.8889°
argument of perigee: 54.4766°
revolutions per day: 15.17776603
mean anomaly at epoch: 305.6113°
orbit number at epoch: 67724

The dashed part of the orbit path shows where the satellite is in the earth's shadow,  

DLR